User: anonymous   Login
Location: Fort Wayne
(41.1310°N, 85.1290°W)
Time: 20:20:55
(UTC-04:00)
Language:

Cosmos 1980 - Orbit

View from above orbital plane
View from above orbital plane
View from above satellite
View from above satellite

Ground track
Ground track

The orbit data is extracted from the following two-line orbital elements,

1 19649U 88102A   17234.45241564 +.00000019 +00000-0 +34659-4 0  9997
2 19649 071.0006 286.7565 0006918 230.4016 129.6496 14.14673061483672
Epoch (UTC): 22 August 2017 10:51:28
Eccentricity: 0.0006918
inclination: 71.0006°
perigee height: 838 km
apogee height: 848 km
right ascension of ascending node: 286.7565°
argument of perigee: 230.4016°
revolutions per day: 14.14673061
mean anomaly at epoch: 129.6496°
orbit number at epoch: 48367

The dashed part of the orbit path shows where the satellite is in the earth's shadow,  

DLR